Location: Niverville
(49.6028°N, 97.0419°W)
Time: 05:18:49
(UTC-05:00)

ISS - All Passes

Search period start: 28 May 2017 00:00
Search period end: 07 June 2017 00:00
Orbit: 402 x 408 km, 51.6° (Epoch: 28 May)

Date Brightness Start Highest point End Pass type
(mag) Time Alt. Az. Time Alt. Az. Time Alt. Az.
28 May - 00:51:18 10° WNW 00:54:35 63° N 00:57:51 10° E visible
28 May - 02:27:51 10° WNW 02:31:04 49° SSW 02:34:15 10° SE visible
28 May - 04:06:13 10° WSW 04:06:56 11° SW 04:07:40 10° SSW visible
28 May - 20:46:51 10° SSW 20:49:36 24° SE 20:52:19 10° E daylight
28 May - 22:22:30 10° WSW 22:25:49 89° NNW 22:29:07 10° ENE visible
28 May - 23:59:12 10° WNW 00:02:28 58° N 00:05:44 10° E visible
29 May - 01:35:47 10° WNW 01:39:04 74° SSW 01:42:21 10° ESE visible
29 May - 03:12:54 10° W 03:15:09 17° SW 03:17:24 10° S visible
29 May - 19:55:44 10° S 19:57:45 15° SE 19:59:46 10° E daylight
29 May - 21:30:29 10° WSW 21:33:46 66° SSE 21:37:03 10° ENE daylight
29 May - 23:07:04 10° W 23:10:21 59° N 23:13:37 10° ENE visible
30 May - 00:43:43 10° WNW 00:47:01 83° NNE 00:50:19 10° ESE visible
30 May - 02:20:27 10° W 02:23:18 27° SW 02:26:08 10° SSE visible
30 May - 20:38:37 10° SW 20:41:46 44° SSE 20:44:56 10° ENE daylight
30 May - 22:14:56 10° W 22:18:13 66° N 22:21:31 10° ENE visible
30 May - 23:51:37 10° WNW 23:54:55 67° N 23:58:12 10° E visible
31 May - 01:28:12 10° WNW 01:31:21 42° SSW 01:34:29 10° SE visible
31 May - 19:46:55 10° SSW 19:49:49 28° SE 19:52:43 10° E daylight
31 May - 21:22:48 10° WSW 21:26:06 81° NNW 21:29:25 10° ENE daylight
31 May - 22:59:30 10° WNW 23:02:47 59° N 23:06:02 10° E visible
01 Jun - 00:36:04 10° WNW 00:39:21 64° SSW 00:42:36 10° ESE visible
01 Jun - 02:13:26 10° WSW 02:15:20 15° SW 02:17:14 10° S visible
01 Jun - 18:55:34 10° S 18:57:55 18° SE 19:00:15 10° E daylight
01 Jun - 20:30:42 10° WSW 20:34:01 76° SSE 20:37:19 10° ENE daylight
01 Jun - 22:07:21 10° W 22:10:37 58° N 22:13:53 10° E visible
01 Jun - 23:43:57 10° WNW 23:47:16 89° SSW 23:50:34 10° ESE visible
02 Jun - 01:20:47 10° W 01:23:28 23° SW 01:26:08 10° SSE visible
02 Jun - 18:05:01 10° SSE 18:06:03 11° SE 18:07:07 10° ESE daylight
02 Jun - 19:38:44 10° SW 19:41:57 51° SSE 19:45:10 10° ENE daylight
02 Jun - 21:15:10 10° W 21:18:27 62° N 21:21:44 10° ENE daylight
02 Jun - 22:51:51 10° WNW 22:55:09 72° NNE 22:58:26 10° E visible
03 Jun - 00:28:27 10° W 00:31:31 36° SSW 00:34:34 10° SE visible
03 Jun - 18:46:55 10° SSW 18:49:56 33° SSE 18:52:57 10° E daylight
03 Jun - 20:22:59 10° W 20:26:17 74° NNW 20:29:36 10° ENE daylight
03 Jun - 21:59:41 10° WNW 22:02:58 61° N 22:06:14 10° E daylight
03 Jun - 23:36:15 10° WNW 23:39:29 55° SSW 23:42:43 10° SE visible
04 Jun - 01:14:01 10° WSW 01:15:24 12° SW 01:16:47 10° SSW visible
04 Jun - 17:55:22 10° SSW 17:57:57 21° SE 18:00:34 10° E daylight
04 Jun - 19:30:49 10° WSW 19:34:08 85° SSE 19:37:27 10° ENE daylight
04 Jun - 21:07:30 10° W 21:10:46 58° N 21:14:02 10° E daylight
04 Jun - 22:44:05 10° WNW 22:47:23 80° SSW 22:50:41 10° ESE visible
05 Jun - 00:21:03 10° W 00:23:31 20° SW 00:25:58 10° S visible
05 Jun - 17:04:20 10° SSE 17:06:03 14° SE 17:07:46 10° ESE daylight
05 Jun - 18:38:46 10° SW 18:42:01 60° SSE 18:45:17 10° ENE daylight
05 Jun - 20:15:17 10° W 20:18:34 60° N 20:21:50 10° ENE daylight
05 Jun - 21:51:55 10° WNW 21:55:15 78° NNE 21:58:32 10° ESE daylight
05 Jun - 23:28:36 10° W 23:31:33 30° SW 23:34:29 10° SSE visible
06 Jun - 17:46:50 10° SW 17:49:56 39° SSE 17:53:04 10° E daylight
06 Jun - 19:23:03 10° W 19:26:20 69° NNW 19:29:39 10° ENE daylight
06 Jun - 20:59:45 10° WNW 21:03:03 64° N 21:06:20 10° E daylight
06 Jun - 22:36:19 10° WNW 22:39:31 47° SSW 22:42:41 10° SE visible
